Friday Harbor, WA
on Saturday, January 12, 2013

Saturday
Previous Day Next Day
Daily Summary
 ActualAverageRecord
Temperature
Mean Temperature °F °F  
Max Temperature 36°F 43°F 52°F (2002)
Min Temperature 24°F 35°F 17°F (2007)
Degree Days
Heating Degree Days 35    
Moisture
Dew Point 24°F   
Average Humidity 83    
Maximum Humidity 96    
Minimum Humidity 52    
Precipitation
Precipitation 0.00 in in in ()
Wind
Wind Speed 1 mph   
Max Wind Speed 8 mph   
Max Gust Speed mph   
Visibility 10 miles   
Events     
Averages and records for this station are not official NWS values.
Key: T is trace of precipitation, MM is missing value
Source: NWS Daily Summary
Seasonal Weather Averages
Time(PST)TemperatureDew PointHumidity Pressure Visibility Wind DirectionWind SpeedGust SpeedPrecipitationEvents Conditions
12:53 AM 28.9°F 26.1°F 89% 30.35 in 10.0 miles Calm Calm - N/A   Clear
1:53 AM 27.0°F 25.0°F 92% 30.35 in 10.0 miles Calm Calm - N/A   Clear
2:53 AM 26.1°F 24.1°F 92% 30.35 in 10.0 miles Calm Calm - N/A   Clear
3:53 AM 26.1°F 24.1°F 92% 30.36 in 10.0 miles Calm Calm - N/A   Clear
4:53 AM 27.0°F 24.1°F 89% 30.36 in 10.0 miles Calm Calm - N/A   Clear
5:53 AM 25.0°F 23.0°F 92% 30.37 in 10.0 miles Calm Calm - N/A   Clear
6:53 AM 24.1°F 21.9°F 91% 30.38 in 10.0 miles Calm Calm - N/A   Clear
7:53 AM 25.0°F 21.9°F 88% 30.39 in 10.0 miles Calm Calm - N/A   Clear
8:53 AM 26.1°F 24.1°F 92% 30.40 in 10.0 miles Calm Calm - N/A   Clear
9:53 AM 33.1°F 28.9°F 85% 30.41 in 10.0 miles North 3.5 mph - N/A   Clear
10:53 AM 34.0°F 24.1°F 67% 30.42 in 10.0 miles North 5.8 mph - N/A   Clear
11:53 AM 36.0°F 21.9°F 57% 30.41 in 10.0 miles North 6.9 mph - N/A   Clear
12:53 PM 36.0°F 19.9°F 52% 30.42 in 10.0 miles North 8.1 mph - N/A   Clear
1:53 PM 35.1°F 21.9°F 59% 30.42 in 10.0 miles North 8.1 mph - N/A   Clear
2:53 PM 35.1°F 23.0°F 61% 30.41 in 10.0 miles North 5.8 mph - N/A   Clear
4:53 PM 28.0°F 24.1°F 85% 30.41 in 10.0 miles Calm Calm - N/A   Clear
5:53 PM 28.0°F 24.1°F 85% 30.43 in 10.0 miles Calm Calm - N/A   Clear
6:53 PM 27.0°F 24.1°F 89% 30.43 in 10.0 miles Calm Calm - N/A   Clear
7:53 PM 26.1°F 24.1°F 92% 30.42 in 10.0 miles Calm Calm - N/A   Clear
8:53 PM 27.0°F 24.1°F 89% 30.43 in 10.0 miles West 3.5 mph - N/A   Clear
9:53 PM 24.1°F 23.0°F 96% 30.44 in 10.0 miles Calm Calm - N/A   Clear
10:53 PM 26.1°F 24.1°F 92% 30.46 in 10.0 miles Calm Calm - N/A   Mostly Cloudy
11:53 PM 28.9°F 27.0°F 92% 30.46 in 10.0 miles Calm Calm - N/A   Overcast
Moon Phase
Jan. 12 Jan. 18 Jan. 26 Feb. 03 Feb. 10
Sunrise:08:00 AM (PST) Moon Rise:08:14 AM (PST)1/12
Sunset:04:40 PM (PST) Moon Set:06:27 PM (PST)1/12

Copyright © 2014 The Weather Underground, Inc.